Sturgeon Bay, WI

4:50 PM CST on February 13, 2016 (GMT -0600)
Door County Cherryland

Weather History for KSUE - September, 2014

Change the Weather History Date:

Friday, September 12, 2014

  Actual Average Record
Temperature  
Mean Temperature 47 °F -  
Max Temperature 50 °F 73 °F 90 °F (1931)
Min Temperature 44 °F 51 °F 34 °F (1943)
Degree Days  
Heating Degree Days 18    
Moisture  
Dew Point 38 °F    
Average Humidity 72    
Maximum Humidity 81    
Minimum Humidity 62    
Precipitation  
Precipitation 0.00 in - - ()
Sea Level Pressure  
Sea Level Pressure 30.33 in    
Wind  
Wind Speed 8 mph (North)    
Max Wind Speed 14 mph    
Max Gust Speed 17 mph    
Visibility 10 miles    
Events      
Averages and records for this station are not official NWS values.
T = Trace of Precipitation, MM = Missing Value Source: NWS Daily Summary

Daily Weather History Graph

Daily Weather History Graph

Search for Another Location

Airport or City:

Trip Planner

Search our weather history database for the weather conditions in past years. The results will help you decide how hot, cold, wet, or windy it might be!

Date:

Astronomy

Sep. 12, 2014 Rise Set
Actual Time 6:24 AM CDT 7:06 PM CDT
Civil Twilight 5:55 AM CDT 7:35 PM CDT
Nautical Twilight 5:20 AM CDT 8:10 PM CDT
Astronomical Twilight 4:43 AM CDT 8:46 PM CDT
Moon 9:14 PM CDT (9/12) 10:39 AM CDT (9/12)
Length of Visible Light 13h 40m
Length of Day
12h 41m
Waning Gibbous, 83% of the Moon is Illuminated
Sep 12
Waning Gibbous
Sep 15
Last Quarter
Sep 24
New
Oct 1
First Quarter
Oct 8
Full

Hourly Weather History & Observations

Time (CDT) Temp. Windchill Dew Point Humidity Pressure Visibility Wind Dir Wind Speed Gust Speed Precip Events Conditions
12:15 AM 44.6 °F 39.7 °F 35.6 °F 71% 30.33 in 10.0 mi NNE 9.2 mph - N/A   Scattered Clouds
12:35 AM 44.6 °F 39.2 °F 35.6 °F 71% 30.33 in 10.0 mi NE 10.4 mph - N/A   Mostly Cloudy
12:55 AM 46.4 °F 42.9 °F 35.6 °F 66% 30.33 in 10.0 mi NE 6.9 mph - N/A   Overcast
1:15 AM 44.6 °F 42.2 °F 35.6 °F 71% 30.33 in 10.0 mi NNE 4.6 mph - N/A   Mostly Cloudy
1:35 AM 46.4 °F 42.9 °F 35.6 °F 66% 30.34 in 10.0 mi NNE 6.9 mph - N/A   Overcast
1:55 AM 46.4 °F 43.5 °F 37.4 °F 71% 30.34 in 10.0 mi NNE 5.8 mph - N/A   Overcast
2:15 AM 46.4 °F 42.9 °F 37.4 °F 71% 30.34 in 10.0 mi NE 6.9 mph - N/A   Overcast
2:35 AM 46.4 °F 42.4 °F 37.4 °F 71% 30.34 in 10.0 mi NNE 8.1 mph - N/A   Overcast
2:55 AM 46.4 °F 41.9 °F 37.4 °F 71% 30.34 in 10.0 mi NNE 9.2 mph - N/A   Overcast
3:15 AM 46.4 °F 41.9 °F 37.4 °F 71% 30.33 in 10.0 mi NNE 9.2 mph - N/A   Overcast
3:35 AM 46.4 °F 41.9 °F 37.4 °F 71% 30.33 in 10.0 mi NNE 9.2 mph - N/A   Overcast
4:15 AM 46.4 °F 41.1 °F 37.4 °F 71% 30.34 in 10.0 mi NE 11.5 mph - N/A   Overcast
4:35 AM 46.4 °F 41.5 °F 37.4 °F 71% 30.34 in 10.0 mi NNE 10.4 mph - N/A   Overcast
4:55 AM 46.4 °F 41.9 °F 37.4 °F 71% 30.34 in 10.0 mi NNE 9.2 mph - N/A   Overcast
5:15 AM 46.4 °F 42.4 °F 37.4 °F 71% 30.34 in 10.0 mi NNE 8.1 mph - N/A   Mostly Cloudy
5:35 AM 44.6 °F 39.7 °F 37.4 °F 76% 30.34 in 10.0 mi North 9.2 mph - N/A   Clear
5:55 AM 44.6 °F 39.2 °F 37.4 °F 76% 30.35 in 10.0 mi North 10.4 mph 17.3 mph N/A   Partly Cloudy
6:15 AM 44.6 °F 39.2 °F 37.4 °F 76% 30.35 in 10.0 mi North 10.4 mph - N/A   Partly Cloudy
6:35 AM 46.4 °F 41.5 °F 37.4 °F 71% 30.37 in 10.0 mi North 10.4 mph - N/A   Scattered Clouds
6:55 AM 46.4 °F 42.4 °F 37.4 °F 71% 30.38 in 10.0 mi North 8.1 mph - N/A   Mostly Cloudy
7:15 AM 48.2 °F - 37.4 °F 66% 30.39 in 10.0 mi North 8.1 mph - N/A   Overcast
7:35 AM 46.4 °F 41.5 °F 37.4 °F 71% 30.37 in 10.0 mi North 10.4 mph - N/A   Overcast
7:55 AM 46.4 °F 41.5 °F 37.4 °F 71% 30.37 in 10.0 mi North 10.4 mph - N/A   Overcast
8:15 AM 46.4 °F 41.1 °F 37.4 °F 71% 30.38 in 10.0 mi North 11.5 mph - N/A   Mostly Cloudy
8:35 AM 46.4 °F 41.5 °F 37.4 °F 71% 30.38 in 10.0 mi North 10.4 mph - N/A   Overcast
8:55 AM 48.2 °F - 37.4 °F 66% 30.38 in 10.0 mi North 9.2 mph - N/A   Overcast
9:15 AM 48.2 °F - 37.4 °F 66% 30.38 in 10.0 mi NNE 10.4 mph - N/A   Mostly Cloudy
9:35 AM 48.2 °F - 39.2 °F 71% 30.39 in 10.0 mi North 9.2 mph - N/A   Overcast
9:55 AM 48.2 °F - 39.2 °F 71% 30.40 in 10.0 mi North 12.7 mph 16.1 mph N/A   Overcast
10:15 AM 48.2 °F - 37.4 °F 66% 30.39 in 10.0 mi North 10.4 mph 16.1 mph N/A   Overcast
10:35 AM 48.2 °F - 37.4 °F 66% 30.39 in 10.0 mi North 11.5 mph - N/A   Overcast
10:55 AM 48.2 °F - 39.2 °F 71% 30.38 in 10.0 mi North 13.8 mph - N/A   Overcast
11:15 AM 48.2 °F - 39.2 °F 71% 30.37 in 10.0 mi North 11.5 mph - N/A   Overcast
11:35 AM 48.2 °F - 39.2 °F 71% 30.37 in 10.0 mi NNE 13.8 mph - N/A   Mostly Cloudy
12:15 PM 48.2 °F - 39.2 °F 71% 30.35 in 10.0 mi North 11.5 mph 17.3 mph N/A   Overcast
12:35 PM 50.0 °F - 39.2 °F 66% 30.35 in 10.0 mi NE 10.4 mph 16.1 mph N/A   Overcast
12:55 PM 50.0 °F - 37.4 °F 62% 30.35 in 10.0 mi North 9.2 mph - N/A   Overcast
1:15 PM 50.0 °F - 39.2 °F 66% 30.35 in 10.0 mi NNE 9.2 mph - N/A   Overcast
1:35 PM 50.0 °F - 37.4 °F 62% 30.35 in 10.0 mi North 8.1 mph - N/A   Overcast
1:55 PM 48.2 °F - 37.4 °F 66% 30.35 in 10.0 mi North 11.5 mph - N/A   Overcast
2:15 PM 48.2 °F - 37.4 °F 66% 30.34 in 10.0 mi NNE 6.9 mph - N/A   Overcast
2:35 PM 48.2 °F - 37.4 °F 66% 30.34 in 10.0 mi North 9.2 mph - N/A   Overcast
2:55 PM 48.2 °F - 37.4 °F 66% 30.33 in 10.0 mi North 9.2 mph - N/A   Overcast
3:15 PM 48.2 °F - 39.2 °F 71% 30.33 in 10.0 mi North 8.1 mph - N/A   Overcast
3:35 PM 48.2 °F - 39.2 °F 71% 30.33 in 10.0 mi NNE 6.9 mph - N/A   Overcast
3:55 PM 48.2 °F - 39.2 °F 71% 30.32 in 10.0 mi NNE 4.6 mph - N/A   Overcast
4:15 PM 48.2 °F - 39.2 °F 71% 30.32 in 10.0 mi NNE 4.6 mph - N/A   Overcast
4:35 PM 48.2 °F - 39.2 °F 71% 30.32 in 10.0 mi North 5.8 mph - N/A   Overcast
4:55 PM 46.4 °F 44.3 °F 39.2 °F 76% 30.32 in 10.0 mi North 4.6 mph - N/A   Mostly Cloudy
5:15 PM 46.4 °F - 39.2 °F 76% 30.32 in 10.0 mi Calm Calm - N/A   Overcast
5:35 PM 46.4 °F 41.9 °F 37.4 °F 71% 30.32 in 10.0 mi NNE 9.2 mph - N/A   Overcast
5:55 PM 46.4 °F 42.4 °F 33.8 °F 62% 30.32 in 10.0 mi NNE 8.1 mph - N/A   Overcast
6:15 PM 44.6 °F 43.1 °F 37.4 °F 76% 30.31 in 10.0 mi NE 3.5 mph - N/A   Overcast
6:35 PM 46.4 °F 45.2 °F 35.6 °F 66% 30.31 in 10.0 mi NNW 3.5 mph - N/A   Overcast
6:55 PM 44.6 °F 42.2 °F 37.4 °F 76% 30.30 in 10.0 mi North 4.6 mph - N/A   Overcast
7:15 PM 44.6 °F 42.2 °F 37.4 °F 76% 30.30 in 10.0 mi North 4.6 mph - N/A   Overcast
7:35 PM 44.6 °F - 37.4 °F 76% 30.29 in 10.0 mi Calm Calm - N/A   Overcast
7:55 PM 44.6 °F - 39.2 °F 81% 30.29 in 10.0 mi Calm Calm - N/A   Overcast
8:15 PM 44.6 °F 43.1 °F 39.2 °F 81% 30.29 in 10.0 mi North 3.5 mph - N/A   Overcast
8:35 PM 44.6 °F 42.2 °F 37.4 °F 76% 30.30 in 10.0 mi North 4.6 mph - N/A   Mostly Cloudy
8:55 PM 44.6 °F 42.2 °F 37.4 °F 76% 30.29 in 10.0 mi North 4.6 mph - N/A   Overcast
9:15 PM 44.6 °F 42.2 °F 37.4 °F 76% 30.29 in 10.0 mi North 4.6 mph - N/A   Overcast
9:35 PM 44.6 °F 42.2 °F 39.2 °F 81% 30.29 in 10.0 mi North 4.6 mph - N/A   Overcast
9:55 PM 44.6 °F 40.2 °F 39.2 °F 81% 30.29 in 10.0 mi NNW 8.1 mph - N/A   Mostly Cloudy
10:15 PM 44.6 °F 41.4 °F 39.2 °F 81% 30.29 in 7.0 mi WNW 5.8 mph - N/A   Overcast
10:35 PM 44.6 °F 39.7 °F 39.2 °F 81% 30.29 in 9.0 mi NNW 9.2 mph - N/A   Overcast
10:55 PM 44.6 °F 40.2 °F 39.2 °F 81% 30.29 in 10.0 mi NW 8.1 mph - N/A   Overcast
11:15 PM 44.6 °F 38.8 °F 39.2 °F 81% 30.28 in 10.0 mi NW 11.5 mph - N/A   Overcast
11:35 PM 44.6 °F 40.2 °F 39.2 °F 81% 30.28 in 10.0 mi NW 8.1 mph - N/A   Overcast
11:55 PM 44.6 °F 39.7 °F 37.4 °F 76% 30.28 in 10.0 mi NW 9.2 mph - N/A   Overcast